[[{"header":{"parameterUnit":"m.s-1","parameterCategory":1,"la1":30.2991,"la2":30.254,"lo1":-89.0895,"lo2":-89.0444,"dy":0.0017,"dx":0.0017,"nx":28,"ny":28,"refTime":"2025-08-29T03:00:00:Z","depth":0,"parameterNumber":2,"parameterNumberName":"U-component_of_WINDS"},"data":[0,0,0,0,0,0,0,0,0,0,0,0,0,0,0,0,0,0,0,0,0,0,0,0,0,0,0,0,0,0,0,0,0,0,0,0,0,0,0,0,0,0,0,0,0,0,0,0,0,0,0,0,0,0,0,0,0,0,4.0318,4.032,0,4.0467,4.0468,4.047,4.0444,4.0441,4.0439,4.0436,4.059,4.0596,4.0603,0,0,0,0,0,0,0,0,0,0,0,0,0,4.0016,4.0022,4.0318,4.032,4.0322,4.0467,4.0469,4.0471,4.0444,4.0441,4.0438,4.0435,4.0588,4.0595,4.0603,0,0,0,0,0,0,0,0,0,0,0,0,0,4.0154,4.0023,4.0318,4.0326,4.0329,4.0466,4.0469,4.0471,4.0445,4.0441,4.0437,4.0434,4.0585,4.0595,4.0604,4.0744,0,0,4.0634,4.0639,0,0,0,0,0,0,0,0,4.0146,4.0165,4.0323,4.0326,4.0329,4.0433,4.0418,4.0563,4.0446,4.0401,4.0436,4.0432,4.0541,4.0554,4.0591,4.0751,4.0757,4.0635,4.0641,4.0645,4.0648,0,0,0,0,0,0,0,4.0137,4.0159,4.0377,4.0326,4.0329,4.0324,4.0339,4.0446,4.0491,4.0405,4.0403,4.0421,4.0542,4.0581,4.0594,4.076,4.0635,4.0644,4.065,4.0654,4.1045,4.1049,0,0,0,0,0,0,4.0124,4.0151,4.0372,4.0381,4.0226,4.0333,4.035,4.0403,4.049,4.0499,4.0424,4.0419,4.0566,4.0583,4.0599,4.077,4.0645,4.0655,4.066,4.1041,4.1046,4.1051,0,0,0,0,0,0,4.0118,4.0144,4.0366,4.0266,4.0294,4.0342,4.0403,4.0408,4.0448,4.0505,4.0513,4.0456,4.0564,4.0586,4.0709,4.0775,4.0659,4.0668,4.1035,4.1042,4.1048,4.1112,0,0,0,0,0,0,4.0109,4.0142,4.0194,4.0267,4.0299,4.0472,4.0407,4.0414,4.0465,4.046,4.0537,4.0546,4.0563,4.0694,4.0718,4.0786,4.0675,4.1029,4.1038,4.1046,4.1104,4.112,4.1133,0,0,0,0,0,4.0098,4.0206,4.0197,4.0224,4.0365,4.0476,4.0494,4.0511,4.047,4.0524,4.0561,4.0543,4.0764,4.0707,4.0734,4.0806,4.1025,4.1036,4.1046,4.1097,4.1117,4.1133,0,0,0,0,0,0,4.0139,4.0215,4.0206,4.034,4.0402,4.0471,4.0539,4.0531,4.0605,4.0597,4.0616,4.0633,4.0759,4.0795,4.073,4.0947,4.0889,4.0905,4.0919,4.0938,4.0952,4.0941,4.0684,0,0,0,0,0,4.0164,4.0246,4.0309,4.0421,4.0452,4.0491,4.0539,4.0547,4.0612,4.0638,4.0684,4.0748,4.0832,4.0887,4.0967,4.1109,4.1127,4.1172,4.1187,4.1199,4.1213,4.1293,4.1315,4.1084,4.1084,4.1084,0,0,4.0215,4.0267,4.0318,4.0431,4.0479,4.0566,4.0513,4.0606,4.0671,4.0652,4.0771,4.0808,4.0881,4.1015,4.1076,4.1048,4.128,4.1212,4.1221,4.1228,4.1306,4.1328,4.1347,4.1091,4.109,4.1089,0,0,4.0354,4.04,4.05,4.0551,4.0625,4.065,4.0674,4.0746,4.077,4.0889,4.0878,4.0956,4.11,4.1153,4.1199,4.1361,4.1349,4.1387,4.1464,4.1543,4.1561,4.1577,4.1637,4.1658,4.1401,4.1401,4.1401,0,4.0409,4.0537,4.0553,4.0648,4.0699,4.0687,4.0789,4.0837,4.0934,4.0971,4.0938,4.112,4.1168,4.1316,4.1356,4.1393,4.1423,4.1378,4.1557,4.1573,4.1589,4.1646,4.1669,4.1405,4.1405,4.1404,4.1404,0,4.0603,4.0692,4.0764,4.0859,4.0918,4.1016,4.1048,4.1106,4.111,4.1139,4.1263,4.1321,4.1414,4.1449,4.1453,4.1599,4.158,4.1552,4.1494,4.1615,4.1669,4.1691,4.1411,4.141,4.1408,4.1407,0,0,4.077,4.0873,4.0899,4.0943,4.1026,4.1096,4.1195,4.1286,4.1337,4.1405,4.149,4.1613,4.1589,4.1641,4.1651,4.172,4.1848,4.1685,4.1687,4.1715,4.2015,4.2036,4.2061,4.184,4.1844,4.1848,4.201,0,4.0917,4.1091,4.1109,4.1265,4.135,4.1341,4.1428,4.1489,4.1519,4.1597,4.1631,4.1719,4.1679,4.1711,4.1779,4.1818,4.1909,4.1807,4.1921,4.1925,4.1904,4.2089,4.2111,4.2261,4.2031,4.2034,4.2037,0,4.1112,4.1187,4.1351,4.1425,4.1461,4.1538,4.1625,4.1698,4.1768,4.1786,4.1846,4.1848,4.1952,4.189,4.2036,4.1966,4.2014,4.2041,4.2047,4.2059,4.1989,4.2108,4.2309,4.2332,4.207,4.2067,4.2065,0,4.122,4.1361,4.1479,4.1516,4.1604,4.166,4.1699,4.1765,4.182,4.1895,4.1932,4.2019,4.2067,4.2135,4.2162,4.2113,4.2307,4.2246,4.2326,4.2326,4.2367,4.2365,4.2581,4.2397,4.2396,4.2396,4.2395,0,4.1383,4.1485,4.1529,4.1601,4.1716,4.1737,4.185,4.1887,4.1946,4.2027,4.2025,4.2101,4.213,4.2212,4.2233,4.2352,4.2373,4.2392,4.2397,4.2393,4.2391,4.2426,4.2417,4.2402,4.24,4.2399,4.2398,0,4.1523,4.1556,4.1684,4.1758,4.1779,4.186,4.1924,4.1995,4.2025,4.2128,4.2153,4.2201,4.2298,4.2331,4.2447,4.2462,4.2601,4.2596,4.2577,4.2578,4.2657,4.265,4.2904,4.2939,4.273,4.2732,4.2734,0,4.1626,4.1704,4.1786,4.184,4.1882,4.1968,4.2024,4.2049,4.2108,4.2195,4.2256,4.2352,4.243,4.2584,4.2631,4.2721,4.2719,4.2802,4.2733,4.2728,4.2723,4.2719,4.2728,4.2815,4.2817,4.2819,4.2821,0,4.1806,4.1819,4.1899,4.1987,4.2053,4.2123,4.2191,4.2236,4.227,4.2337,4.2435,4.2496,4.2616,4.2712,4.2804,4.2847,4.2841,4.2842,4.2866,4.2863,4.285,4.2861,4.2614,4.2836,4.2835,4.2833,4.2833,4.2832,4.1932,4.2002,4.2071,4.2162,4.2215,4.2279,4.2351,4.239,4.2473,4.2572,4.2582,4.2689,4.276,4.2884,4.293,4.3016,4.2993,4.3026,4.3035,4.3044,4.3051,4.2836,4.3032,4.3032,4.3032,4.3031,4.3031,0,4.2113,4.2157,4.224,4.2336,4.2408,4.2395,4.247,4.2532,4.2626,4.2692,4.2769,4.2884,4.2978,4.3032,4.3127,4.3185,4.3185,4.3209,4.3206,4.3216,4.3065,4.3036,4.3208,4.3208,4.3208,4.3208,4.3208,4.3208,4.2216,4.2334,4.2356,4.2503,4.2547,4.2651,4.2696,4.2756,4.2809,4.2937,4.3015,4.305,4.3113,4.3212,4.3298,4.3312,4.3348,4.3375,4.3387,4.3245,4.3226,4.3209,4.3182,4.3382,4.3382,4.3532,4.3533,4.3534]},{"header":{"parameterUnit":"m.s-1","parameterCategory":1,"la1":30.2991,"la2":30.254,"lo1":-89.0895,"lo2":-89.0444,"dy":0.0017,"dx":0.0017,"nx":28,"ny":28,"refTime":"2025-08-29T03:00:00:Z","depth":0,"parameterNumber":3,"parameterNumberName":"V-component_of_WINDS"},"data":[0,0,0,0,0,0,0,0,0,0,0,0,0,0,0,0,0,0,0,0,0,0,0,0,0,0,0,0,0,0,0,0,0,0,0,0,0,0,0,0,0,0,0,0,0,0,0,0,0,0,0,0,0,0,0,0,0,0,-2.4359,-2.4359,0,-2.4363,-2.4363,-2.4363,-2.4343,-2.4342,-2.4342,-2.4341,-2.4343,-2.4344,-2.4344,0,0,0,0,0,0,0,0,0,0,0,0,0,-2.4331,-2.4332,-2.4359,-2.4359,-2.4359,-2.4363,-2.4363,-2.4363,-2.4343,-2.4342,-2.4341,-2.4341,-2.4343,-2.4344,-2.4344,0,0,0,0,0,0,0,0,0,0,0,0,0,-2.434,-2.4332,-2.4359,-2.435,-2.4349,-2.4363,-2.4363,-2.4363,-2.4343,-2.4342,-2.4341,-2.434,-2.4343,-2.4344,-2.4344,-2.4367,0,0,-2.4347,-2.4348,0,0,0,0,0,0,0,0,-2.434,-2.4341,-2.4351,-2.435,-2.435,-2.4352,-2.4354,-2.4364,-2.4343,-2.4345,-2.4341,-2.434,-2.4347,-2.4347,-2.435,-2.4367,-2.4367,-2.4347,-2.4348,-2.4348,-2.4348,0,0,0,0,0,0,0,-2.4339,-2.4341,-2.4361,-2.4351,-2.435,-2.4344,-2.4344,-2.4356,-2.4351,-2.4345,-2.4344,-2.4344,-2.4346,-2.4349,-2.4349,-2.4367,-2.4347,-2.4348,-2.4349,-2.4349,-2.44,-2.4401,0,0,0,0,0,0,-2.434,-2.434,-2.436,-2.4361,-2.4342,-2.4345,-2.4346,-2.4352,-2.435,-2.4349,-2.4345,-2.4343,-2.4348,-2.4348,-2.4349,-2.4374,-2.4348,-2.4349,-2.435,-2.44,-2.4401,-2.4402,0,0,0,0,0,0,-2.4339,-2.4342,-2.436,-2.435,-2.4352,-2.4347,-2.4354,-2.4352,-2.4355,-2.4351,-2.4349,-2.4349,-2.4347,-2.4348,-2.4362,-2.4374,-2.4349,-2.435,-2.4399,-2.44,-2.4401,-2.4424,0,0,0,0,0,0,-2.4339,-2.4342,-2.4352,-2.4351,-2.4353,-2.4374,-2.4354,-2.4353,-2.4357,-2.4355,-2.4354,-2.4353,-2.4346,-2.4361,-2.4363,-2.4374,-2.4351,-2.4398,-2.4399,-2.4401,-2.4422,-2.4426,-2.4429,0,0,0,0,0,-2.4338,-2.4358,-2.4352,-2.4355,-2.4365,-2.4375,-2.4376,-2.4369,-2.4358,-2.4367,-2.4363,-2.4353,-2.4372,-2.4363,-2.4365,-2.4377,-2.4397,-2.4399,-2.4401,-2.442,-2.4425,-2.4429,0,0,0,0,0,0,-2.4361,-2.4358,-2.4351,-2.4372,-2.4374,-2.4372,-2.4383,-2.4374,-2.4379,-2.4376,-2.4366,-2.4366,-2.4381,-2.4381,-2.437,-2.4397,-2.4382,-2.4385,-2.4397,-2.4401,-2.4404,-2.4404,-2.4352,0,0,0,0,0,-2.4368,-2.4378,-2.4374,-2.4393,-2.4394,-2.4388,-2.4393,-2.4386,-2.4388,-2.4388,-2.4386,-2.4387,-2.4393,-2.4397,-2.4403,-2.4422,-2.442,-2.4431,-2.4434,-2.4437,-2.4439,-2.4446,-2.445,-2.4408,-2.4408,-2.4408,0,0,-2.4384,-2.4383,-2.439,-2.4397,-2.4398,-2.4407,-2.4389,-2.44,-2.4405,-2.439,-2.4402,-2.4401,-2.4401,-2.4417,-2.4424,-2.4417,-2.445,-2.4439,-2.4442,-2.4442,-2.4448,-2.4453,-2.4456,-2.4409,-2.4409,-2.4409,0,0,-2.4416,-2.4418,-2.4432,-2.4432,-2.4434,-2.4429,-2.4432,-2.4431,-2.4429,-2.4442,-2.4429,-2.4436,-2.4447,-2.4447,-2.4448,-2.4478,-2.4467,-2.448,-2.4497,-2.4504,-2.4508,-2.4511,-2.4519,-2.4522,-2.4482,-2.4482,-2.4482,0,-2.4435,-2.4448,-2.444,-2.4451,-2.4453,-2.4439,-2.4452,-2.4453,-2.4456,-2.4458,-2.445,-2.4461,-2.4461,-2.4475,-2.4482,-2.4485,-2.4486,-2.4479,-2.4508,-2.4511,-2.4513,-2.4521,-2.4525,-2.4483,-2.4483,-2.4483,-2.4483,0,-2.447,-2.4479,-2.449,-2.4493,-2.4497,-2.4509,-2.4501,-2.4506,-2.4499,-2.4495,-2.4506,-2.4505,-2.4508,-2.4511,-2.4505,-2.4524,-2.4519,-2.451,-2.4495,-2.4519,-2.4526,-2.4529,-2.4485,-2.4484,-2.4484,-2.4484,0,0,-2.4517,-2.4514,-2.4518,-2.4517,-2.4517,-2.4523,-2.4533,-2.4537,-2.454,-2.4542,-2.4549,-2.4558,-2.4548,-2.4549,-2.4543,-2.4549,-2.457,-2.4539,-2.4538,-2.4543,-2.4588,-2.4594,-2.4598,-2.4563,-2.4564,-2.4564,-2.4587,0,-2.4547,-2.4565,-2.4557,-2.4575,-2.4582,-2.4568,-2.4576,-2.4576,-2.4572,-2.4576,-2.4571,-2.4577,-2.4565,-2.4565,-2.4571,-2.4566,-2.4578,-2.4565,-2.4568,-2.4568,-2.4567,-2.4602,-2.4609,-2.4631,-2.459,-2.4591,-2.4591,0,-2.4584,-2.4587,-2.4605,-2.4601,-2.4604,-2.4612,-2.4613,-2.4618,-2.4616,-2.4612,-2.4613,-2.4604,-2.4612,-2.4598,-2.4607,-2.4598,-2.4599,-2.4596,-2.4597,-2.4596,-2.458,-2.46,-2.4638,-2.464,-2.4596,-2.4595,-2.4595,0,-2.4614,-2.4622,-2.4634,-2.4634,-2.463,-2.4636,-2.4634,-2.4631,-2.4633,-2.4634,-2.4635,-2.4637,-2.4637,-2.4638,-2.4629,-2.462,-2.4639,-2.4625,-2.4634,-2.4635,-2.4638,-2.4638,-2.4675,-2.4641,-2.4641,-2.4641,-2.4641,0,-2.4647,-2.4659,-2.4647,-2.4654,-2.4665,-2.4655,-2.4667,-2.4663,-2.4661,-2.4666,-2.4654,-2.4659,-2.4647,-2.465,-2.4643,-2.465,-2.4651,-2.4647,-2.4645,-2.4648,-2.4648,-2.4647,-2.4645,-2.4642,-2.4642,-2.4642,-2.4642,0,-2.4682,-2.4675,-2.4686,-2.4681,-2.468,-2.4688,-2.4683,-2.4688,-2.4683,-2.4689,-2.469,-2.4681,-2.4683,-2.4675,-2.4676,-2.4671,-2.4682,-2.4678,-2.4682,-2.468,-2.469,-2.4689,-2.4727,-2.473,-2.4696,-2.4696,-2.4697,0,-2.4703,-2.4711,-2.4706,-2.4709,-2.4707,-2.4712,-2.4713,-2.4703,-2.4705,-2.4702,-2.4707,-2.4709,-2.471,-2.4714,-2.4707,-2.4708,-2.4702,-2.4716,-2.4702,-2.4704,-2.47,-2.4699,-2.4699,-2.4718,-2.4718,-2.4719,-2.4719,0,-2.474,-2.4736,-2.4739,-2.4739,-2.4741,-2.4742,-2.4741,-2.4743,-2.4732,-2.4735,-2.4737,-2.4737,-2.4738,-2.4739,-2.4738,-2.4734,-2.4724,-2.4723,-2.4725,-2.4727,-2.4729,-2.4726,-2.4688,-2.4722,-2.4722,-2.4722,-2.4722,-2.4722,-2.4767,-2.4773,-2.477,-2.4773,-2.4771,-2.477,-2.4774,-2.4769,-2.4771,-2.477,-2.4764,-2.4767,-2.4763,-2.476,-2.4757,-2.4759,-2.4752,-2.4756,-2.4756,-2.4757,-2.4758,-2.473,-2.4759,-2.4759,-2.4758,-2.4758,-2.4758,0,-2.4802,-2.4799,-2.4802,-2.48,-2.4802,-2.4793,-2.4791,-2.4793,-2.4796,-2.4793,-2.4793,-2.4795,-2.4795,-2.4788,-2.4787,-2.4789,-2.4784,-2.4789,-2.4788,-2.4787,-2.4765,-2.4762,-2.4793,-2.4793,-2.4793,-2.4793,-2.4793,-2.4793,-2.482,-2.4828,-2.4823,-2.483,-2.4826,-2.4829,-2.4829,-2.4827,-2.4825,-2.4827,-2.4827,-2.4822,-2.4817,-2.4815,-2.4814,-2.4812,-2.4811,-2.4817,-2.4813,-2.4792,-2.4789,-2.4786,-2.4783,-2.4818,-2.4818,-2.4835,-2.4836,-2.4836]}]]